Location: Newark
(44.1667°N, 8.2500°E)
Time: 08:02:45
(UTC+00:00)

S-56A Canister/Altair - Visible Passes

Search period start: 14 December 2019 00:00
Search period end: 24 December 2019 00:00
Orbit: 632 x 2500 km, 38.9° (Epoch: 13 December)

Date Brightness Start Highest point End Pass type
(mag) Time Alt. Az. Time Alt. Az. Time Alt. Az.
14 Dec 11.9 05:45:47 10° SSE 05:52:47 18° SE 06:00:46 10° E visible
14 Dec 12.0 16:10:29 10° W 16:17:25 16° SW 16:23:30 10° SSW visible
15 Dec 11.9 05:14:39 10° SSE 05:19:55 14° SE 05:25:47 10° E visible
16 Dec 11.9 04:45:01 10° SE 04:47:07 11° ESE 04:49:19 10° ESE visible
17 Dec 11.3 06:07:15 10° SSW 06:16:45 33° SE 06:28:44 10° E visible
18 Dec 11.2 05:35:06 10° S 05:43:44 29° SE 05:54:41 10° E visible
19 Dec 11.2 05:03:06 10° S 05:10:49 25° SE 05:20:32 10° E visible
20 Dec 11.2 04:31:20 10° S 04:38:00 20° SE 04:46:14 10° E visible
21 Dec 11.2 03:59:53 10° SSE 04:05:16 16° SE 04:11:41 10° E visible
21 Dec 10.6 05:58:42 10° SW 06:08:11 46° SSE 06:21:11 10° E visible
22 Dec 11.2 03:29:03 10° SSE 03:32:36 13° SE 03:36:36 10° ESE visible
22 Dec 10.5 05:26:21 10° SSW 05:35:08 42° SE 05:47:18 10° E visible
23 Dec 10.5 04:54:06 10° SSW 05:02:11 37° SE 05:13:23 10° E visible
